This is the latest recevied weather packets stored in our database for station/object W3EJE-13. If no packets are shown the sender has not sent any weather packets the latest 10 day(s).
| Time | Temp. | Humidity | Pressure | Rain* | Wind** | Luminosity | Snow |
|---|---|---|---|---|---|---|---|
| 1777582918 | 6.67° C | 84% | 1014.2 hPa | 0 mm | - | 87 W/m² | - |
| 1777582616 | 6.67° C | 84% | 1014.2 hPa | 0 mm | - | 44 W/m² | - |
| 1777582311 | 7.22° C | 86% | 1014.2 hPa | 0 mm | - | 46 W/m² | - |
| 1777582009 | 6.67° C | 84% | 1014.3 hPa | 0 mm | - | 66 W/m² | - |
| 1777581704 | 7.22° C | 85% | 1014.1 hPa | 0 mm | - | 94 W/m² | - |
| 1777581404 | 6.67° C | 86% | 1014.1 hPa | 0 mm | - | 148 W/m² | - |
| 1777581098 | 7.22° C | 87% | 1014.1 hPa | 0 mm | - | 88 W/m² | - |
| 1777580798 | 6.67° C | 88% | 1014.1 hPa | 0 mm | - | 240 W/m² | - |
| 1777580495 | 6.67° C | 90% | 1014.1 hPa | 0 mm | - | 173 W/m² | - |
| 1777580189 | 6.11° C | 89% | 1014.2 hPa | 0 mm | - | 49 W/m² | - |
| 1777579887 | 6.67° C | 90% | 1013.9 hPa | 0 mm | - | 35 W/m² | - |
| 1777579586 | 6.67° C | 90% | 1013.9 hPa | 0 mm | - | 39 W/m² | - |
| 1777579280 | 6.67° C | 90% | 1013.9 hPa | 0 mm | - | 63 W/m² | - |
| 1777578976 | 6.67° C | 90% | 1014.1 hPa | 0 mm | - | 140 W/m² | - |
| 1777578671 | 6.67° C | 90% | 1013.8 hPa | 0 mm | - | 78 W/m² | - |
| 1777578370 | 7.22° C | 91% | 1013.8 hPa | 0 mm | - | 103 W/m² | - |
| 1777578067 | 6.67° C | 91% | 1013.8 hPa | 0 mm | - | 127 W/m² | - |
| 1777577762 | 6.67° C | 91% | 1013.9 hPa | 0 mm | - | 157 W/m² | - |
| 1777577458 | 7.22° C | 92% | 1013.7 hPa | 0 mm | - | 117 W/m² | - |
| 1777577156 | 6.67° C | 93% | 1013.7 hPa | 0 mm | - | 223 W/m² | - |
| 1777576852 | 6.67° C | 93% | 1013.8 hPa | 0 mm | - | 127 W/m² | - |
| 1777576551 | 6.67° C | 93% | 1013.5 hPa | 0 mm | - | 133 W/m² | - |
| 1777576247 | 6.67° C | 92% | 1013.7 hPa | 0 mm | - | 86 W/m² | - |
| 1777575944 | 6.67° C | 91% | 1013.5 hPa | 0 mm | - | 69 W/m² | - |
| 1777575640 | 7.22° C | 91% | 1013.4 hPa | 0 mm | - | 91 W/m² | - |
* Rain latest hour (hover to see other rain measurements)
** Current wind speed in m/s (hover to see current wind gust speed)